Volver al catálogo

STARLINK-33627

ActivoComunicacionesVLEO
NORAD 63068·PAYLOAD·🇺🇸 United States

Lanzado Feb 21, 2025 desde Cape Canaveral Space Force Station

Loading…

Próximos Pases (próximas 24 horas)

TLE

ActualizadoSource: CelesTrak SupGP

Época: Sep 15, 2026, 03:16 UTC

1 63068C 25035S   26258.13659722  .00054088  00000+0  19590-2 0  2584
2 63068  42.9995 157.2883 0001380 271.8994  26.2002 15.27552167    13

Sigue STARLINK-33627 en tiempo real con AllMySat

Download on the App Store